Location: Newark
(21.8258°S, 114.1586°E)
Time: 12:31:06
(UTC+00:00)

Envisat - Visible Passes

Search period start: 16 December 2019 00:00
Search period end: 26 December 2019 00:00
Orbit: 764 x 766 km, 98.1° (Epoch: 16 December)

Date Brightness Start Highest point End Pass type
(mag) Time Alt. Az. Time Alt. Az. Time Alt. Az.
16 Dec 5.7 11:55:51 10° SSW 11:59:43 22° WSW 12:03:32 10° WNW visible
17 Dec 3.9 11:18:09 10° S 11:23:10 57° WSW 11:28:08 10° NNW visible
18 Dec 6.4 12:23:40 10° SW 12:24:56 11° WSW 12:26:13 10° W visible
19 Dec 5.3 11:44:09 10° SSW 11:48:31 29° WSW 11:52:50 10° NW visible
21 Dec 6.1 12:10:59 10° SW 12:13:46 15° WSW 12:16:33 10° WNW visible
22 Dec 4.7 11:32:35 10° S 11:37:18 38° WSW 11:41:58 10° NW visible
24 Dec 5.9 11:58:59 10° SSW 12:02:36 20° WSW 12:06:12 10° WNW visible
